Simultaneous Nadir Overpasses (SNOs) Predictions

Prediction of SNOs between FY3D and METOP-C Satellite Orbit:

Table of predicted SNOs for the next 14.0 days since TLE Epoch: 7/21/2021
Index Date (FY3D) Time (FY3D) Lat,Lon (FY3D) SZA (FY3D ) Date (METOP-C) Time (METOP-C) Lat,Lon (METOP-C) SZA (METOP-C ) Distance(km) Time Diff (sec)
1 08/03/2021 20:49:53 74.17,-140.54 57.07 08/03/2021 20:50:59 74.14,-137.60 56.90 89.32 66
2 08/03/2021 21:40:35 -74.06, 27.07 123.05 08/03/2021 21:41:43 -74.01, 29.41 123.21 71.86 68
3 08/03/2021 22:31:17 73.93,-165.30 56.82 08/03/2021 22:32:26 73.87,-163.60 56.68 52.98 69
4 08/03/2021 23:21:59 -73.82, 2.30 123.30 08/03/2021 23:23:10 -73.75, 3.43 123.44 36.04 71
5 08/04/2021 00:12:40 73.64, 170.04 56.52 08/04/2021 00:13:53 73.60, 170.43 56.45 12.90 73
6 08/04/2021 01:03:22 -73.52, -22.38 123.60 08/04/2021 01:04:36 -73.52, -22.43 123.62 1.49 74
7 08/04/2021 01:54:07 73.54, 144.89 56.43 08/04/2021 01:55:16 73.53, 144.92 56.40 1.79 69



Historial Predications of SNOs between FY3D and METOP-C
